Showing default

SATORO-T2, 60477

Orbit data source: Space-Track

SATORO-T2, 60477 is a payload satellite owned by Satoro (SG) in SSO that was launched on Fri, 16 Aug 2024 UTC via an FALCON 9 launch vehicle from the Air Force Western Test Range (AFWTR). Payload-class satellites include a variety of spacecraft equipped with specific instruments for various scientific and technological missions. These include communications satellites like Starlink; space stations such as the ISS; scientific satellites like the Hubble; Earth observation satellites from companies like Planet Labs, Umbra, and HawkEye 360; GPS; miniature CubeSats for education and research; and military/defense satellites.

Not visible in the next 10 days
Identifier
60477, 2024-149K
Orbit
SSO
Country
Flag of UnknownUnknown / SING
Related business
Manufacturer
Satoro
Mission
Operational Commercial Technology
Bus & Motor
CUBESAT 3U, Unknown motor
Mass
4 kg wet, 4 kg dry
Launch date (UTC)
2024-08-16 (1 year ago)
Launch vehicle
FALCON 9
Launch site
Air Force Western Test Range (AFWTR)
Object type
Payload
Rocket body
Debris
Shape & HBR
Box, 0.1 m
Radar Cross Section
0.035 m², Medium (>0.1 m² and < 1m²)

Expand to show TLE details & history
Last TLE update: 22 hours ago

TLE from 22 hours ago
0 SATORO-T2
1 60477U 24149K   26034.20930810  .00286226  00000-0  15101-2 0  9998
2 60477  97.3748 125.1724 0004269 269.1990  90.8788 15.79860656 82231
Epoch: 2026-02-03T05:01Z
TLE epoch observation values (Epoch: 2026-02-03T05:01:24.219Z)
Latitude
-0.00008°
Longitude
-83.57203°
Altitude
334.052 km
Speed
7.708 km/s
True Right ascension
08h 20m 41s
True Declination
0° 00' 00"
Sunlit
Object was in full shadow at epoch
Visualization orbit readout
Latitude
Unknown
Longitude
Unknown
Altitude
Unknown
Speed
Unknown
Apparent Right ascension
Unknown
Apparent Declination
Unknown
Sunlit
N/A
Visualization observer readout
Local Sidereal Time
05:01:04
Azimuth
Unknown
Elevation
Unknown
Doppler factor
Unknown
Orbital elements
Apogee altitude
330.583 km
Perigee altitude
324.858 km
Semi-major axis
6,705.857 km
Eccentricity
0.00043
Inclination
97.3748°
RAAN
125.1724°
Arg. of periapsis
269.199°
True anomaly
90.92771°
Mean anomaly
90.8788°
Eccentric anomaly
90.90326°
Mean motion
3.95241 °/min
Orbital period
91.08 mins
BSTAR
0.0015101
Loading maneuver chart data...
Computing Atmospheric mass density...
Loading historical data...
Loading historical data...
Loading historical data...
Loading historical data...
Loading historical data...
Loading historical data...
Loading historical data...

Documentation

Showing up to 5 results
|